Location: Katowice
(50.2611°N, 19.0242°E)
Time: 18:00:10
(UTC+02:00)

S-56A Canister/Altair - All Passes

Search period start: 22 August 2019 00:00
Search period end: 01 September 2019 00:00
Orbit: 633 x 2499 km, 38.9° (Epoch: 21 August)

Date Brightness Start Highest point End Pass type
(mag) Time Alt. Az. Time Alt. Az. Time Alt. Az.
22 Aug - 00:46:33 10° SW 00:50:00 21° S 00:53:58 10° SE night (unlit)
22 Aug - 02:50:16 10° SW 02:52:53 14° SSW 02:55:51 10° S visible
22 Aug - 22:12:11 10° SSW 22:14:53 15° SSE 22:17:34 10° SE visible
23 Aug - 00:14:11 10° SW 00:17:32 21° S 00:21:14 10° SE night (unlit)
23 Aug - 02:17:47 10° SW 02:20:20 14° SSW 02:23:13 10° SSE night (unlit)
23 Aug - 21:39:52 10° SSW 21:42:26 15° SSE 21:44:53 10° SE visible
23 Aug - 23:41:46 10° SW 23:45:04 20° S 23:48:34 10° SE night (unlit)
24 Aug - 01:45:18 10° SW 01:47:49 14° SSW 01:50:38 10° SSE night (unlit)
24 Aug - 21:07:29 10° SSW 21:09:57 14° SSE 21:12:16 10° SE visible
24 Aug - 23:09:19 10° SW 23:12:37 20° S 23:15:59 10° SE visible
25 Aug - 01:12:48 10° SW 01:15:20 15° SSW 01:18:05 10° SSE night (unlit)
25 Aug - 20:35:03 10° S 20:37:28 13° SSE 20:39:42 10° SE visible
25 Aug - 22:36:48 10° SW 22:40:10 20° S 22:43:28 10° SE visible
26 Aug - 00:40:15 10° SW 00:42:50 15° SSW 00:45:36 10° SSE night (unlit)
26 Aug - 20:02:35 10° S 20:04:57 13° SSE 20:07:09 10° SE daylight
26 Aug - 22:04:12 10° SW 22:07:43 20° S 22:11:00 10° SE visible
27 Aug - 00:07:40 10° SW 00:10:23 16° SSW 00:13:12 10° SSE night (unlit)
27 Aug - 19:30:03 10° S 19:32:26 13° SSE 19:34:36 10° SE daylight
27 Aug - 21:31:33 10° SW 21:35:16 20° S 21:38:35 10° SE visible
27 Aug - 23:35:02 10° SW 23:37:55 17° SSW 23:40:49 10° SSE visible
28 Aug - 18:57:29 10° S 18:59:53 12° SSE 19:02:03 10° SE daylight
28 Aug - 20:58:49 10° SW 21:02:47 21° S 21:06:13 10° SE visible
28 Aug - 23:02:21 10° SW 23:05:29 18° SSW 23:08:30 10° SSE visible
29 Aug - 18:24:54 10° S 18:27:18 12° SSE 18:29:29 10° SE daylight
29 Aug - 20:26:01 10° SW 20:30:17 21° S 20:33:52 10° SE visible
29 Aug - 22:29:36 10° WSW 22:33:01 19° SSW 22:36:13 10° SE visible
30 Aug - 17:52:18 10° S 17:54:42 12° SSE 17:56:52 10° SE daylight
30 Aug - 19:53:08 10° SW 19:57:46 22° S 20:01:33 10° ESE daylight
30 Aug - 21:56:47 10° WSW 22:00:34 21° S 22:03:57 10° SE visible
31 Aug - 17:19:44 10° S 17:22:04 12° SSE 17:24:12 10° SE daylight
31 Aug - 19:20:12 10° SW 19:25:14 22° S 19:29:14 10° ESE daylight
31 Aug - 21:23:53 10° WSW 21:28:07 22° S 21:31:42 10° SE visible
31 Aug - 23:29:32 10° SW 23:30:35 11° SSW 23:31:38 10° SSW visible
